Weather Roundup
Issued by NWS

Home | Current Version | Previous Version | Text Only | Print | Product List | Glossary On
Versions: 1 2 3 4 5 6 7 8 9 10 11 12 13 14 15 16 17 18 19 20 21 22 23 24 25 26 27 28 29 30 31 32 33 34 35 36 37 38 39 40 41 42 43 44 45 46 47 48 49 50
000
NZUS93 KARX 271310
HRRWXR

CURRENT HOURLY OBSERVATIONS ACROSS
MUCH OF THE UPPER MISSISSIPPI VALLEY
NATIONAL WEATHER SERVICE LA CROSSE WI
800 AM CDT FRI MAR 27 2015


...SOUTHEAST MINNESOTA...


CITY           SKY/WX    TMP DP  RH WIND       PRES   REMARKS
ROCHESTER      CLEAR     13   4  67 NW7       30.24R WCI   3
ROCHESTER/MAYO FAIR      17   9  71 NW3       30.25R
WINONA         SUNNY     21  14  73 NW6       30.28R WCI  14
AUSTIN         CLEAR     14   5  67 N3        30.24S
ALBERT LEA     CLEAR     18   9  68 N5        30.25R WCI  11
DODGE CENTER   PTCLDY    16   5  62 N5        30.24R WCI   9
PRESTON        SUNNY     14   7  72 N3        30.23S
OWATONNA       CLEAR     10   3  72 CALM      30.26R
FARIBAULT      CLEAR     12   7  79 CALM      30.27R
$$

...ELSEWHERE IN MINNESOTA...


CITY           SKY/WX    TMP DP  RH WIND       PRES   REMARKS
MINNEAPOLIS    CLEAR     20   5  52 N5        30.29R WCI  13
INTNL FALLS    CLEAR      7   3  84 CALM      30.25S
DULUTH         PTCLDY    13   3  64 N6        30.24R WCI   4
RED WING       CLEAR     21   7  53 CALM      30.28R
REDWOOD FALLS  CLEAR     19   7  59 CALM      30.28S
MANKATO        CLEAR     18   5  57 NE8       30.27S WCI   7
WORTHINGTON    CLEAR     18   9  68 NW7       30.26R WCI   8
FAIRMONT       FAIR      18  10  73 N5        30.25R WCI  11
$$

...SOUTHWEST WISCONSIN...


CITY           SKY/WX    TMP DP  RH WIND       PRES   REMARKS
LA CROSSE      SUNNY     22  13  68 N6        30.26R WCI  14
PRAIRIE DU CHI SUNNY     18   6  59 NE3       30.25R
BOSCOBEL       SUNNY     18   8  65 CALM      30.25R HAZE
LONE ROCK      SUNNY     21   7  54 N5        30.24R WCI  15
PLATTEVILLE    SUNNY     19   9  64 N7        30.21R WCI  10
FORT MC COY    SUNNY     13  10  86 CALM      30.26R
CAMP DOUGLAS   SUNNY     18  12  79 N6        30.23R WCI   9
VIROQUA        FAIR      16   9  73 N3        30.20S
WIS DELLS      SUNNY     18   9  67 N7        30.21R WCI   9
$$

...ELSEWHERE IN WISCONSIN...


CITY           SKY/WX    TMP DP  RH WIND       PRES   REMARKS
MILWAUKEE      MOSUNNY   20   5  52 N16       30.17R WCI   6
MADISON        SUNNY     20   8  60 N8        30.20R WCI  10
GREEN BAY      SUNNY     19   9  65 N12       30.21R WCI   7
EAU CLAIRE     SUNNY     19   7  59 VRB3      30.26R
BLACK RVR FLS  FAIR      15  10  83 N3        30.25R
MEDFORD        SUNNY     10   7  87 CALM      30.20R
WAUSAU         SUNNY     15   7  70 N7        30.19R WCI   5
WIS RAPIDS     SUNNY     18   5  57 N7        30.24R WCI   9
MARSHFIELD     SUNNY     17   7  64 N5        30.21R WCI  10
RICE LAKE      SUNNY     17   8  68 N3        30.28R
$$

...NORTHEAST IOWA...


CITY           SKY/WX    TMP DP  RH WIND       PRES   REMARKS
DECORAH        SUNNY     19   7  58 N3        30.22R
MASON CITY     CLEAR     20  14  77 N6        30.26R WCI  12
CHARLES CITY   CLEAR     19  12  73 N7        30.25R WCI  10
OELWEIN        SUNNY     21  12  68 NE8       30.24R WCI  12
$$

...ELSEWHERE IN IOWA...


CITY           SKY/WX    TMP DP  RH WIND       PRES   REMARKS
DES MOINES     CLEAR     27  17  66 N7        30.25R WCI  19
IOWA CITY      SUNNY     26  12  55 NE15      30.23R WCI  14
FORT DODGE     CLEAR     21  16  79 N6        30.26S WCI  14
$$

...NORTHERN ILLINOIS...


CITY           SKY/WX    TMP DP  RH WIND       PRES   REMARKS
CHICAGO-OHARE  PTSUNNY   22   8  55 N15       30.15R WCI   9
CHICAGO-MIDWAY FLURRIES  26  16  65 N16       30.14R WCI  14
MOLINE         PTSUNNY   27  11  51 N12       30.19R WCI  17
ROCKFORD       SUNNY     22   4  46 N18       30.21R WCI   7
PEORIA         MOSUNNY   29  19  66 N6        30.17R WCI  23
$$

NOTE: "FAIR" INDICATES FEW OR NO CLOUDS BELOW 12,000 FEET WITH NO
SIGNIFICANT WEATHER AND/OR OBSTRUCTIONS TO VISIBILITY. WIND
SPEEDS ARE IN MILES-PER-HOUR.



USA.gov is the U.S. government's official web portal to all federal, state and local government web resources and services.